Wetbulb
69.16 71.03 71.92 72.45 72.57 72.41 72.04 71.72 71.31 70.92 70.85 71.01 70.94 70.89 70.72 70.88 70.73 71.08 71.69 71.72 71.72 71.27 69.65 69.13 68.30 67.71 67.52 67.40 67.33 67.34 68.14 68.36 67.93 67.83 67.18 66.74 66.98 67.30 66.91 67.37 66.49 64.24 66.36
66.08 71.46 71.57 71.96 72.23 72.17 71.99 71.47 71.02 70.74 70.79 70.84 70.74 70.49 70.45 70.65 71.33 71.58 71.56 71.13 70.76 69.94 68.81 67.84 67.46 67.30 67.02 66.43 66.33 66.43 66.76 67.97 67.51 67.58 67.07 65.93 66.47 66.86 66.84 65.90 66.14 63.99 66.50
62.43 70.16 71.94 71.44 71.92 72.18 71.93 71.45 70.89 70.81 70.75 70.67 70.45 70.34 70.57 70.87 71.28 71.58 71.32 70.24 69.87 69.20 67.92 67.80 67.35 66.96 66.24 65.55 65.76 66.02 66.31 66.40 66.26 66.79 65.76 61.30 62.18 65.03 65.18 64.75 64.87 64.82 65.11
62.77 69.62 71.43 70.50 71.45 71.80 71.24 70.75 70.48 70.70 70.57 70.30 70.25 70.23 70.31 70.80 70.99 71.36 70.65 69.36 68.99 68.97 67.94 67.39 67.00 66.35 65.46 65.06 65.44 65.74 65.93 66.04 66.11 65.36 60.22 59.83 60.58 64.42 64.28 63.63 63.58 63.80 64.13
69.33 70.11 71.52 70.41 70.42 71.13 70.46 70.09 70.14 70.02 69.56 69.44 69.79 70.31 70.53 70.82 71.12 71.06 70.16 68.53 68.78 68.81 67.35 66.96 66.28 65.44 64.55 65.00 64.88 64.72 64.53 64.83 64.60 61.21 58.10 57.90 58.54 61.95 62.61 62.33 62.09 62.52 62.38
69.31 70.12 68.86 69.67 70.07 70.38 70.08 70.05 69.66 69.20 68.76 69.06 69.58 70.42 71.16 71.28 71.09 70.55 69.09 68.29 68.75 68.02 66.56 65.85 64.80 64.10 64.02 64.00 63.47 63.69 63.76 63.67 64.27 58.80 57.58 58.63 58.25 61.71 61.58 61.32 60.99 60.87 61.17
66.08 67.63 65.86 64.73 68.88 69.69 70.09 69.80 69.09 68.79 68.70 68.95 69.56 70.29 70.62 70.87 70.22 69.81 68.37 67.94 67.56 66.86 65.20 64.49 63.84 63.30 62.97 63.08 62.67 62.63 62.32 62.36 59.58 57.91 56.90 56.42 57.33 60.89 61.15 60.55 60.08 59.96 60.17
63.67 62.98 62.64 64.30 63.89 68.01 68.94 68.34 67.90 68.06 68.27 68.36 68.80 69.21 69.75 69.75 69.39 68.65 67.68 67.10 66.54 65.91 65.15 63.83 63.12 62.14 61.82 61.70 61.20 60.61 60.72 61.80 60.72 57.94 57.01 56.23 59.38 60.42 60.45 60.06 59.59 59.29 59.41
64.25 62.43 60.71 60.20 61.33 62.94 63.91 65.04 65.60 66.97 67.37 67.45 67.56 67.23 67.34 67.17 66.91 66.98 66.84 66.38 65.94 65.32 64.36 62.96 61.99 61.90 60.61 60.31 59.52 59.12 59.81 60.83 57.64 58.24 57.94 56.26 59.58 59.74 59.80 59.50 59.31 58.83 58.76
63.51 63.06 60.41 59.29 59.13 58.98 60.33 62.97 63.85 66.19 66.26 66.32 66.34 65.96 65.38 65.64 66.01 65.92 65.67 65.72 65.34 64.53 63.36 62.16 61.37 60.67 59.23 58.67 57.49 57.54 59.06 59.35 56.44 57.27 56.74 56.73 59.28 59.41 59.12 58.92 58.57 58.16 57.97
58.60 60.05 60.44 58.65 57.88 57.73 58.23 60.02 62.01 66.12 65.66 65.34 65.24 64.53 62.94 62.71 62.40 62.71 64.15 64.35 64.30 63.54 62.56 61.24 60.05 59.41 58.17 57.24 58.17 57.72 57.90 52.09 54.02 56.61 56.69 60.65 59.31 59.02 58.57 58.04 57.59 57.11 57.04
56.78 57.98 58.49 58.18 58.38 58.72 59.73 57.61 59.23 63.03 63.73 63.34 62.96 62.19 61.67 60.62 61.93 62.72 63.56 63.45 63.09 62.37 61.62 60.92 60.11 59.01 57.77 51.48 51.74 56.32 51.62 52.36 52.58 55.20 54.72 60.37 59.29 58.96 57.99 57.22 56.74 55.96 56.01
56.60 57.41 57.84 58.02 58.63 58.78 58.70 57.94 61.09 61.68 62.49 62.78 62.58 62.42 61.95 62.14 61.52 60.99 60.21 59.28 58.71 58.90 54.86 56.21 55.87 54.59 55.16 53.39 52.74 52.19 51.88 51.00 50.75 50.28 54.87 58.32 59.87 59.03 57.74 56.69 56.03 55.35 54.82
56.33 57.09 57.72 58.16 58.65 58.47 59.10 60.21 60.84 61.19 61.12 60.83 63.12 62.72 62.31 61.49 61.21 59.75 58.60 58.68 57.54 56.86 54.06 55.55 56.15 55.04 53.39 53.16 52.64 51.57 51.19 50.01 49.99 50.65 53.75 55.90 58.75 58.47 58.32 56.96 55.97 54.76 53.80
55.72 56.63 56.93 58.22 58.37 58.67 58.81 60.04 60.69 60.66 60.44 61.59 62.85 63.38 62.45 61.55 61.07 60.25 59.96 58.65 57.89 58.81 57.55 57.39 54.93 53.85 52.96 52.19 51.70 51.21 50.72 50.10 50.84 52.87 53.50 57.65 57.47 58.76 56.83 57.39 55.27 53.94 53.80
56.08 56.12 57.11 57.73 59.42 58.35 58.94 59.45 59.71 60.59 61.95 61.96 62.86 63.73 64.32 62.33 62.26 60.59 60.96 59.31 59.17 59.00 58.40 57.09 55.08 53.44 52.38 51.71 51.04 50.55 50.00 50.60 50.51 52.40 52.17 53.27 57.08 57.96 56.74 54.58 53.98 53.34 52.79
55.44 56.41 56.61 57.97 58.68 58.58 57.54 57.69 58.36 58.50 61.23 61.67 62.20 63.90 64.04 63.87 62.93 61.89 60.49 60.01 59.18 58.98 58.37 57.26 55.29 54.32 52.12 52.83 51.02 50.57 50.41 49.67 49.45 49.76 52.24 51.88 52.52 55.36 56.04 54.67 53.25 51.57 50.11
56.00 56.99 57.44 58.48 57.84 58.20 58.98 57.73 60.12 60.22 60.54 61.31 62.14 62.53 63.27 63.14 62.92 61.88 60.79 59.88 59.30 58.84 57.28 55.12 54.08 52.85 52.31 50.90 49.77 49.64 49.70 49.69 49.14 48.93 49.65 51.53 51.50 51.85 54.21 53.97 51.63 49.51 48.38
57.30 56.99 56.01 57.47 58.25 59.68 60.76 60.78 61.37 61.15 61.18 61.14 61.86 62.45 62.67 62.59 62.80 61.66 61.00 59.78 59.25 58.07 56.72 56.22 54.90 54.28 51.50 50.11 50.68 50.43 50.39 49.73 48.80 50.40 48.86 48.51 47.65 47.31 48.88 52.74 51.76 50.59 48.76
58.21 56.24 56.62 57.61 58.96 60.51 61.53 61.88 61.27 60.99 60.75 60.76 60.62 61.97 62.45 61.63 62.81 62.18 60.58 59.83 58.03 57.29 56.30 54.88 54.86 54.07 52.58 50.94 52.39 51.02 50.82 50.30 49.72 48.59 47.86 49.64 48.60 48.14 46.72 46.99 46.11 46.64 49.92
58.73 58.53 58.82 58.56 60.92 61.06 59.73 59.38 59.10 59.23 59.45 59.75 60.48 61.50 63.56 63.63 63.60 62.33 60.38 60.32 58.09 56.74 55.54 55.04 55.07 53.53 51.28 51.33 49.59 49.54 49.89 50.24 48.67 48.01 48.45 47.95 48.10 48.12 47.18 46.26 45.42 44.95 45.32
58.86 59.81 60.09 60.50 61.17 61.28 60.81 60.40 59.58 59.79 60.09 59.88 60.70 61.63 63.49 63.43 63.56 63.23 62.01 60.51 58.05 56.87 56.37 55.91 54.33 52.36 52.47 52.01 48.37 48.26 44.28 46.26 47.16 48.56 48.55 48.51 46.83 47.40 47.88 47.40 46.22 45.71 45.14
59.00 59.61 59.92 60.28 60.41 61.26 61.51 61.21 60.55 60.04 59.50 59.26 59.71 60.48 62.95 63.71 63.19 62.71 61.86 60.94 58.32 57.50 56.32 56.21 55.05 53.98 51.19 52.22 49.81 46.83 43.65 42.29 43.12 48.55 48.28 46.99 46.54 45.63 45.53 45.70 46.14 46.59 44.39
59.27 60.38 60.81 60.66 60.37 61.19 62.41 61.35 59.81 57.53 56.22 58.28 58.76 60.50 62.75 63.49 62.64 62.80 61.57 60.81 58.57 57.07 55.51 55.27 55.42 53.62 52.68 50.12 49.02 47.71 44.01 43.84 41.62 41.52 45.97 46.61 45.91 45.73 44.50 44.61 44.74 44.93 44.56
60.81 60.38 61.24 61.90 61.45 61.79 62.12 62.03 60.95 58.87 58.55 58.65 59.78 59.62 61.77 61.77 61.42 61.49 60.90 59.87 56.45 55.88 55.07 55.78 53.73 53.23 52.51 51.11 48.39 43.45 43.87 44.52 45.59 41.63 39.87 41.57 44.17 44.11 44.48 45.61 44.41 42.92 43.59
61.97 62.03 61.37 61.75 61.95 62.58 62.83 62.28 62.00 59.99 59.31 58.11 58.70 58.98 60.84 60.88 60.92 60.88 59.87 57.17 56.82 55.07 54.55 55.01 54.24 52.79 51.17 46.52 44.98 43.67 43.47 43.37 42.72 41.96 37.77 39.00 39.59 41.39 43.23 43.30 42.42 41.76 41.96
MSLP
1008.55 1008.91 1008.85 1008.88 1009.35 1009.96 1010.69 1011.17 1011.70 1012.18 1012.67 1013.19 1013.76 1014.22 1014.73 1015.20 1015.54 1015.90 1016.35 1016.67 1017.04 1017.49 1017.79 1018.15 1018.33 1018.56 1018.85 1019.21 1019.45 1019.68 1019.81 1020.01 1020.16 1020.16 1020.39 1020.58 1020.56 1020.70 1020.85 1020.60 1020.71 1020.71 1020.66
1010.78 1010.16 1009.54 1009.66 1009.80 1010.47 1010.91 1011.56 1012.19 1012.54 1012.90 1013.51 1014.13 1014.60 1015.11 1015.66 1015.98 1016.36 1016.82 1017.26 1017.58 1017.99 1018.45 1018.73 1018.95 1019.20 1019.50 1019.66 1019.74 1019.97 1020.23 1020.38 1020.43 1020.22 1020.48 1021.06 1021.14 1021.28 1021.56 1021.46 1021.42 1021.35 1021.26
1009.65 1010.86 1010.43 1009.92 1010.21 1010.87 1011.40 1011.80 1012.39 1012.95 1013.25 1013.84 1014.39 1014.97 1015.44 1016.08 1016.41 1016.76 1017.29 1017.62 1018.14 1018.44 1018.97 1019.27 1019.50 1019.76 1020.08 1020.19 1020.09 1020.16 1020.57 1020.75 1020.68 1020.58 1020.71 1021.57 1021.84 1021.90 1022.00 1022.03 1022.01 1022.03 1022.04
1008.55 1010.82 1010.63 1010.11 1010.31 1011.25 1011.82 1012.20 1012.74 1013.13 1013.63 1014.16 1014.68 1015.29 1015.85 1016.33 1016.85 1017.24 1017.65 1018.12 1018.60 1018.92 1019.35 1019.84 1020.34 1020.41 1020.59 1020.62 1020.50 1020.56 1020.72 1020.87 1020.70 1020.81 1021.23 1021.91 1022.28 1022.43 1022.40 1022.57 1022.67 1022.59 1022.63
1008.68 1009.88 1009.87 1010.19 1010.76 1011.31 1011.89 1012.48 1012.98 1013.44 1013.99 1014.52 1015.07 1015.64 1016.08 1016.68 1017.16 1017.67 1018.11 1018.56 1019.07 1019.35 1019.94 1020.31 1020.96 1020.95 1021.10 1021.15 1020.97 1020.97 1020.87 1020.89 1021.11 1021.36 1022.26 1022.66 1022.87 1022.99 1023.11 1023.14 1023.24 1023.21 1023.21
1009.43 1009.81 1010.14 1010.65 1010.51 1010.93 1011.62 1012.50 1013.10 1013.68 1014.35 1015.00 1015.59 1016.07 1016.53 1017.03 1017.49 1018.05 1018.56 1019.01 1019.57 1019.95 1020.41 1021.02 1021.46 1021.49 1021.55 1021.52 1021.41 1021.35 1021.21 1021.23 1021.36 1021.97 1022.89 1023.30 1023.45 1023.57 1023.58 1023.65 1023.77 1023.71 1023.77
1010.38 1010.40 1011.19 1011.85 1011.01 1011.06 1011.43 1012.11 1013.10 1013.82 1014.53 1015.37 1015.98 1016.54 1016.90 1017.30 1018.09 1018.53 1019.03 1019.44 1020.09 1020.55 1020.89 1021.38 1021.79 1021.87 1021.94 1021.93 1021.77 1021.66 1021.25 1021.14 1021.44 1022.38 1023.34 1023.82 1023.81 1023.96 1023.96 1024.05 1023.99 1024.26 1024.32
1010.45 1011.35 1011.34 1011.59 1009.60 1011.41 1011.44 1012.09 1013.09 1013.91 1014.67 1015.64 1016.50 1017.14 1017.44 1017.67 1018.50 1019.15 1019.47 1019.97 1020.57 1020.95 1021.23 1021.64 1021.94 1022.24 1022.42 1022.25 1022.08 1021.90 1021.78 1021.58 1021.70 1022.65 1023.58 1024.20 1024.21 1024.38 1024.37 1024.53 1024.58 1024.59 1024.57
1011.26 1011.16 1011.28 1010.88 1012.63 1011.93 1013.26 1013.22 1014.60 1014.03 1014.94 1015.76 1016.85 1017.73 1018.08 1018.12 1018.98 1019.56 1019.91 1020.28 1020.74 1021.22 1021.52 1021.90 1022.04 1022.43 1022.76 1022.53 1022.52 1022.38 1022.28 1021.96 1022.11 1022.87 1023.72 1024.50 1024.60 1024.69 1024.82 1024.86 1025.06 1025.14 1025.26
1012.02 1012.53 1012.97 1011.86 1011.53 1013.73 1015.73 1015.27 1015.25 1015.63 1015.69 1016.42 1017.24 1017.82 1018.47 1018.99 1019.51 1020.09 1020.52 1020.65 1021.17 1021.53 1022.13 1022.12 1022.40 1022.73 1022.95 1023.02 1022.84 1022.94 1022.63 1022.28 1022.42 1023.27 1024.09 1024.73 1024.99 1025.13 1025.28 1025.27 1025.49 1025.57 1025.39
1013.04 1013.12 1013.10 1013.29 1013.68 1013.91 1014.81 1015.70 1015.92 1016.98 1016.94 1017.59 1017.82 1018.39 1018.63 1019.33 1020.18 1020.68 1021.11 1021.16 1021.57 1022.09 1022.24 1022.48 1022.72 1022.86 1023.07 1023.12 1023.05 1023.16 1023.00 1022.53 1022.85 1023.67 1024.56 1025.00 1025.21 1025.52 1025.70 1025.70 1025.61 1025.87 1026.00
1013.76 1013.78 1013.80 1014.25 1014.62 1015.59 1016.60 1016.97 1016.94 1016.91 1017.71 1018.13 1018.40 1018.72 1019.09 1019.58 1020.30 1021.31 1021.69 1021.69 1021.96 1022.34 1022.62 1022.66 1023.02 1023.11 1023.20 1023.12 1023.15 1023.33 1023.23 1023.03 1023.38 1024.07 1024.79 1024.96 1025.30 1025.75 1026.17 1026.19 1026.03 1026.11 1026.36
1014.13 1014.47 1014.60 1014.94 1015.08 1016.01 1016.59 1017.04 1016.96 1017.32 1017.89 1018.28 1018.75 1018.88 1019.23 1019.74 1020.81 1021.78 1022.15 1022.30 1022.41 1022.71 1022.78 1022.86 1023.17 1023.34 1023.21 1023.17 1023.46 1023.66 1023.49 1023.38 1023.81 1024.39 1024.93 1025.26 1025.36 1025.78 1026.19 1026.59 1026.51 1026.40 1026.52
1014.56 1014.88 1015.26 1015.45 1015.92 1016.38 1016.76 1017.19 1017.46 1017.71 1018.12 1018.59 1018.92 1018.97 1019.58 1019.67 1020.98 1021.74 1022.03 1022.33 1022.48 1022.64 1022.84 1022.64 1023.11 1023.32 1023.59 1023.74 1023.75 1023.76 1023.87 1023.86 1024.11 1024.63 1025.06 1025.44 1025.59 1025.60 1026.13 1026.25 1026.43 1026.81 1026.96
1014.88 1015.45 1015.90 1016.15 1016.50 1016.70 1017.29 1017.93 1017.99 1018.15 1018.32 1018.74 1018.80 1019.15 1019.22 1020.17 1020.85 1021.39 1021.74 1022.06 1022.14 1022.25 1022.57 1022.70 1023.23 1023.47 1023.67 1023.72 1023.99 1023.99 1024.10 1024.15 1024.02 1024.83 1025.13 1025.48 1025.55 1025.67 1025.93 1026.28 1026.52 1026.69 1026.78
1015.28 1015.94 1016.40 1016.76 1016.94 1017.59 1017.97 1018.40 1018.54 1018.23 1018.16 1018.67 1018.85 1019.33 1019.44 1020.08 1020.53 1021.25 1021.52 1021.86 1021.90 1021.89 1022.27 1022.57 1023.20 1023.33 1023.44 1023.74 1024.00 1024.11 1024.11 1024.20 1024.29 1024.65 1024.99 1025.28 1025.65 1025.89 1026.21 1026.42 1026.51 1026.69 1027.04
1015.57 1016.21 1016.82 1017.16 1017.40 1017.75 1017.77 1018.06 1018.18 1018.16 1018.07 1018.58 1019.10 1019.22 1019.41 1019.85 1020.44 1020.80 1021.32 1021.74 1021.80 1021.88 1022.17 1022.46 1022.75 1022.99 1023.34 1023.36 1023.90 1023.88 1024.11 1024.24 1024.51 1024.45 1025.18 1025.18 1025.80 1025.94 1026.23 1026.43 1026.58 1026.79 1026.96
1015.66 1016.19 1016.58 1016.88 1017.20 1017.28 1017.25 1017.23 1017.24 1017.63 1018.19 1018.63 1018.97 1019.28 1019.45 1019.84 1020.20 1020.71 1021.11 1021.48 1021.66 1021.85 1022.14 1022.77 1022.96 1023.09 1023.41 1023.45 1023.66 1023.92 1023.80 1024.09 1024.65 1024.78 1024.81 1025.30 1025.42 1025.95 1026.53 1026.56 1026.78 1026.74 1026.81
1014.97 1015.69 1016.24 1016.49 1016.92 1016.91 1016.96 1017.17 1017.12 1017.59 1017.93 1018.33 1018.51 1018.92 1019.38 1019.82 1020.02 1020.59 1020.95 1021.22 1021.48 1021.78 1022.27 1022.59 1023.08 1023.06 1023.28 1023.43 1023.63 1023.64 1023.79 1023.98 1024.59 1024.37 1024.74 1025.17 1025.45 1025.96 1026.39 1026.67 1026.65 1026.55 1026.56
1014.20 1015.11 1015.41 1015.90 1016.31 1016.48 1016.57 1016.61 1016.87 1017.29 1017.63 1017.86 1018.15 1018.48 1019.04 1019.60 1019.89 1020.28 1020.66 1021.12 1021.41 1021.87 1022.09 1022.38 1022.60 1022.68 1023.20 1023.34 1023.44 1023.46 1023.72 1024.00 1024.19 1024.32 1024.39 1024.90 1025.26 1025.57 1025.85 1026.24 1026.46 1026.39 1026.54
1013.47 1014.14 1014.68 1015.19 1015.29 1015.61 1016.02 1016.44 1016.62 1017.13 1017.56 1017.70 1017.77 1017.98 1018.55 1019.06 1019.45 1019.89 1020.45 1020.82 1021.30 1021.89 1021.87 1022.13 1022.35 1022.48 1023.06 1023.30 1023.77 1023.79 1023.66 1023.90 1024.11 1024.11 1024.31 1024.72 1024.73 1025.11 1025.42 1025.71 1025.91 1026.17 1026.34
1012.69 1013.20 1013.56 1014.00 1014.56 1015.02 1015.55 1015.89 1016.12 1016.48 1016.98 1017.08 1017.17 1017.38 1017.94 1018.64 1019.02 1019.74 1020.20 1020.47 1020.87 1021.40 1021.68 1021.54 1022.02 1022.36 1022.81 1023.15 1023.84 1023.63 1024.05 1024.44 1024.17 1024.36 1024.27 1024.28 1024.39 1024.77 1025.06 1025.12 1025.41 1025.66 1025.85
1011.76 1012.46 1013.05 1013.40 1014.02 1014.39 1014.54 1015.10 1015.60 1015.97 1016.24 1016.51 1016.75 1016.98 1017.28 1018.07 1018.54 1019.36 1019.79 1020.12 1020.36 1020.67 1021.09 1021.25 1021.49 1021.88 1022.44 1022.81 1023.16 1023.41 1023.84 1024.19 1024.35 1023.77 1024.12 1023.97 1024.20 1024.77 1024.90 1024.88 1025.04 1025.11 1025.38
1010.99 1011.78 1012.18 1012.69 1013.31 1013.78 1013.89 1014.10 1014.68 1015.00 1015.37 1015.60 1015.80 1016.57 1016.99 1017.50 1018.18 1018.78 1019.49 1019.97 1020.08 1020.44 1020.65 1020.94 1021.30 1021.58 1021.56 1022.29 1022.93 1023.05 1023.66 1024.23 1024.73 1024.60 1024.03 1023.87 1023.66 1024.06 1024.45 1024.55 1024.71 1024.75 1024.79
1010.01 1010.77 1011.37 1011.59 1012.04 1012.53 1013.06 1013.35 1013.70 1014.16 1014.68 1015.00 1015.32 1015.83 1016.42 1017.45 1018.15 1018.87 1019.44 1019.74 1020.09 1020.39 1020.73 1021.15 1021.07 1021.54 1021.79 1021.92 1022.65 1023.34 1023.65 1024.37 1024.80 1025.08 1024.48 1023.94 1023.62 1023.68 1023.72 1023.90 1024.08 1024.31 1024.59
1008.79 1009.55 1010.32 1010.70 1011.04 1011.38 1011.86 1012.44 1013.05 1013.44 1013.88 1014.39 1014.88 1015.58 1016.37 1017.03 1017.63 1017.92 1018.70 1019.04 1018.99 1019.55 1020.55 1020.98 1021.40 1021.79 1021.91 1022.98 1023.43 1023.34 1023.56 1024.01 1024.31 1024.88 1024.95 1024.60 1024.36 1023.89 1023.56 1023.41 1023.79 1023.99 1024.21
Wind_Speed
12 15 18 23 21 21 21 21 21 21 21 21 20 20 19 19 19 18 19 21 21 22 23 22 23 23 23 21 20 18 16 16 19 22 23 23 22 23 23 22 19 16 20
16 11 15 21 22 21 22 21 20 21 22 21 20 20 20 19 18 19 22 21 22 22 22 22 22 22 20 18 15 13 12 12 15 21 23 23 22 22 23 21 18 18 22
8 6 15 20 23 22 22 22 21 21 22 21 21 20 20 18 18 20 22 22 21 22 22 22 21 20 18 15 11 9 8 9 5 5 23 12 14 20 21 21 21 20 22
14 14 15 18 24 23 22 22 21 22 22 21 22 21 20 19 18 19 22 22 21 21 22 21 19 18 16 12 10 10 11 11 13 17 13 13 14 21 20 21 20 20 19
17 16 16 18 22 24 23 22 21 21 21 21 21 20 21 20 19 19 22 22 21 22 22 21 18 17 13 10 11 11 12 14 12 19 14 11 9 17 20 20 18 19 19
9 0 12 16 23 26 25 23 22 22 21 20 20 19 19 20 20 20 22 21 21 21 21 19 17 16 12 9 10 9 11 10 5 16 12 14 10 18 19 19 19 19 19
12 12 15 30 15 24 26 26 24 22 21 20 19 19 20 21 21 21 21 22 21 20 21 19 16 15 12 10 11 11 13 17 16 15 12 9 10 18 19 19 19 19 18
19 16 15 29 35 11 26 25 24 23 22 21 19 19 20 22 22 21 22 21 20 19 18 18 16 14 11 9 10 11 11 11 16 15 13 7 15 16 18 18 18 18 18
8 14 16 23 29 31 30 24 19 24 22 21 20 19 19 23 22 21 21 20 20 18 18 17 16 14 11 9 8 10 13 13 6 9 13 6 15 15 16 17 17 18 17
8 7 11 18 24 22 12 19 12 17 20 21 20 20 19 20 20 19 18 19 18 18 16 16 15 13 9 5 6 9 11 13 10 13 9 6 13 14 14 15 16 16 16
8 6 9 13 15 17 19 16 10 14 17 18 18 19 15 10 13 11 14 18 17 16 15 14 13 11 9 5 1 4 9 4 8 9 6 11 12 12 12 13 14 14 14
7 8 9 11 15 14 9 13 12 9 8 7 9 10 8 10 10 10 11 16 16 14 12 11 10 9 7 3 1 1 3 4 7 8 5 8 11 11 11 10 12 13 12
9 9 9 10 11 9 10 9 6 5 5 6 6 7 8 10 9 6 4 5 5 8 4 5 5 3 2 5 5 4 4 4 5 5 6 8 9 10 9 8 8 10 10
11 10 11 10 8 9 5 3 3 4 4 5 4 7 7 8 7 6 3 5 4 4 5 4 3 5 5 5 5 4 5 5 4 5 5 7 3 10 9 8 7 6 6
10 10 9 8 7 10 8 3 2 4 5 5 5 5 7 7 6 5 4 5 4 4 4 3 5 4 4 4 3 3 4 2 2 5 4 8 5 8 7 7 5 4 4
11 10 8 7 5 11 7 6 6 4 5 5 4 4 6 5 6 5 4 4 4 5 4 5 5 5 4 5 3 3 4 3 4 6 5 6 11 10 8 5 3 3 3
10 13 9 8 9 12 11 11 7 6 6 4 3 6 5 6 5 5 5 4 3 3 5 3 4 3 4 5 6 4 5 2 3 3 5 5 6 11 10 9 7 4 1
14 12 11 11 12 9 10 6 4 5 6 4 5 5 6 5 7 5 4 4 4 3 4 3 3 3 4 5 5 5 4 4 4 1 2 4 5 5 6 9 7 5 3
15 14 13 12 11 11 10 12 8 9 5 6 5 6 7 6 7 5 4 4 4 4 3 4 4 4 3 2 4 3 3 3 5 4 5 1 5 3 5 9 9 8 7
17 18 18 17 20 18 11 5 4 6 4 5 5 7 11 7 7 6 4 5 5 4 4 3 4 3 2 4 4 4 5 4 3 3 5 4 5 6 3 7 5 5 8
20 21 19 17 13 9 8 7 7 8 7 6 8 9 13 9 7 6 4 5 5 5 5 6 4 5 2 2 2 3 3 6 3 2 4 5 5 6 7 5 2 2 5
20 21 18 14 13 11 11 9 6 7 8 7 6 9 12 10 8 7 6 7 8 5 6 7 6 3 3 5 4 2 1 1 2 5 5 5 6 3 3 5 6 4 4
18 16 16 17 16 14 13 11 9 8 7 8 8 5 8 10 10 8 8 5 7 7 4 5 6 7 7 3 6 3 2 3 1 3 6 5 4 3 3 3 4 5 5
18 18 18 19 19 16 13 11 12 9 8 6 5 7 9 11 9 10 8 6 5 6 5 5 5 5 5 6 3 3 4 3 2 3 2 2 5 6 5 4 5 5 3
17 17 16 16 19 18 16 11 10 7 6 6 6 7 7 7 7 5 7 7 5 3 1 5 6 6 3 2 4 3 3 2 3 4 4 4 1 5 6 6 6 4 3
18 17 17 15 15 13 15 14 11 11 8 5 6 6 7 6 7 7 6 6 9 8 6 4 4 0 6 4 3 3 4 3 2 3 2 4 5 4 2 3 5 5 4
Wind_Direction
125 142 135 136 135 132 129 129 128 126 123 120 116 114 112 111 111 113 107 105 102 101 99 94 89 87 85 85 87 87 89 93 96 88 72 67 64 59 55 55 59 58 59
2 142 136 136 134 132 130 129 129 127 123 120 119 115 113 114 114 112 108 105 103 104 99 96 93 90 88 88 88 90 94 99 111 95 81 64 62 63 58 58 56 59 55
320 242 152 141 135 133 133 132 131 130 124 123 119 118 117 117 112 113 112 107 106 103 100 96 92 90 87 85 76 63 60 73 59 341 83 73 59 63 60 55 56 55 49
160 206 160 149 136 135 134 135 135 131 127 123 122 122 122 122 119 114 112 108 108 106 101 96 92 90 87 78 59 36 23 19 12 64 67 71 66 56 62 63 58 56 61
141 183 149 146 140 140 138 139 135 127 124 123 123 125 126 126 123 116 111 110 107 105 101 99 96 91 82 58 44 28 10 3 9 70 57 61 70 66 69 63 64 63 62
102 61 143 141 149 142 137 139 133 127 122 121 120 123 124 127 125 115 113 112 108 107 105 101 97 90 73 52 40 20 356 351 94 87 78 67 64 70 69 68 64 64 61
88 64 77 45 172 141 141 134 128 123 119 116 116 117 118 121 125 115 113 110 109 109 108 104 97 89 74 49 28 8 2 2 94 89 82 70 71 71 72 70 69 65 65
99 94 76 60 36 128 134 120 118 112 109 106 106 107 109 109 113 111 111 110 110 108 108 105 98 88 76 54 32 10 6 352 98 98 90 76 74 73 73 72 70 69 67
108 116 114 102 89 39 41 81 110 100 105 105 105 105 103 105 108 111 113 114 113 112 110 109 101 92 77 53 28 5 352 352 56 97 96 85 79 77 75 73 71 69 67
113 115 122 106 109 114 87 58 42 73 97 103 105 105 102 101 105 108 110 112 115 110 114 108 101 97 87 68 23 352 338 321 84 89 90 95 91 83 79 79 76 73 72
62 84 120 109 103 111 124 133 104 102 93 104 112 113 113 114 114 100 112 110 107 114 112 117 121 123 130 127 244 301 304 18 74 90 91 106 103 96 91 89 87 78 73
86 80 85 100 109 121 132 143 145 140 122 127 125 126 116 117 102 102 105 109 113 113 122 136 138 144 172 156 213 258 28 9 75 95 85 103 119 111 101 93 89 80 79
89 90 92 108 113 132 134 147 148 147 147 136 147 131 128 110 107 114 118 114 116 120 146 151 135 195 227 64 49 31 12 48 70 89 101 88 134 125 117 110 100 94 82
108 98 110 110 111 115 114 119 143 129 129 141 163 127 137 104 127 137 155 146 162 173 177 163 121 80 68 75 86 78 39 30 69 107 99 106 120 134 140 128 121 109 98
111 109 110 98 94 119 111 128 178 168 149 159 128 150 115 133 137 154 169 159 179 157 183 126 111 152 138 128 122 125 117 90 333 118 107 114 152 146 134 141 136 127 131
113 117 124 118 122 140 162 164 176 181 159 149 124 141 138 149 134 178 149 172 197 144 176 137 170 158 173 126 125 85 43 80 20 98 129 105 94 97 114 122 109 88 29
128 136 167 166 157 174 175 163 177 188 131 126 161 145 153 142 156 149 158 191 162 167 165 146 147 169 148 167 153 185 144 130 93 23 124 136 133 137 148 148 141 126 49
149 160 154 166 173 181 182 170 164 177 161 157 160 168 160 168 163 166 163 175 177 146 128 130 191 167 201 184 167 191 113 115 96 67 305 143 156 160 160 156 167 173 198
161 161 176 155 159 199 179 191 180 165 165 173 172 152 160 195 160 188 184 154 133 129 182 177 218 187 186 197 175 163 137 145 161 202 121 341 121 160 166 183 194 206 193
159 166 170 173 182 187 180 151 163 151 186 177 181 172 173 183 183 181 149 162 151 178 190 177 207 192 189 205 250 166 162 186 186 173 162 189 200 170 163 174 197 193 184
170 173 182 184 182 164 167 178 184 168 187 197 195 196 176 180 173 169 185 176 163 210 180 187 200 166 234 94 14 285 212 186 155 250 186 202 208 180 191 156 162 121 184
183 174 183 175 175 182 175 189 189 182 192 202 192 197 167 172 168 182 204 191 173 201 199 181 179 164 198 170 193 215 291 49 203 218 231 205 193 204 229 186 184 163 212
169 177 184 181 185 196 192 185 194 189 188 193 195 196 165 161 163 184 206 226 176 193 201 181 177 185 190 178 183 170 231 208 176 206 213 204 176 182 207 236 197 194 166
176 184 190 184 187 197 212 190 189 198 196 188 179 186 175 166 178 182 202 214 172 185 196 176 218 216 185 176 133 138 90 66 131 304 358 233 197 178 196 219 237 181 175
187 186 198 199 192 192 197 219 183 180 193 196 180 188 144 137 139 171 213 203 158 123 213 234 215 207 267 209 171 130 106 135 237 231 253 281 310 197 209 195 206 166 148
192 188 193 205 202 208 190 190 218 192 197 190 175 174 154 154 175 180 193 179 174 180 200 221 203 100 113 95 25 110 150 165 170 245 327 300 262 281 254 205 161 166 171